DECAYED

STARLINK-2324, 47869 (Decayed)

Orbit data source: Space-Track

STARLINK-2324, 47869 was a payload satellite owned by SpaceX/Seattle (US) in LEO that was launched on Sun, 14 Mar 2021 UTC via an FALCON 9 launch vehicle from the Air Force Eastern Test Range (AFETR). Payload-class satellites include a variety of spacecraft equipped with specific instruments for various scientific and technological missions. These include communications satellites like Starlink; space stations such as the ISS; scientific satellites like the Hubble; Earth observation satellites from companies like Planet Labs, Umbra, and HawkEye 360; GPS; miniature CubeSats for education and research; and military/defense satellites.

Not visible in the next 10 days
Identifier
47869, 2021-021K
Orbit
Decayed
Country
Flag of USUS
Related business
Manufacturer
SpaceX/Seattle
Mission
Decayed Commercial Communications
Bus & Motor
STARLINK, Unknown motor
Mass
260 kg wet, ~248 kg dry
Launch date (UTC)
2021-03-14 (5 years ago)
Launch vehicle
FALCON 9
Launch site
Air Force Eastern Test Range (AFETR)
Object type
Payload
Rocket body
Debris
Shape & HBR
Box + 1 Pan, 10.1 m
Radar Cross Section
13.562 m², Large (>1 m²)

Expand to show TLE details & history
Last TLE update: 1 year ago

TLE from 1 year ago
0 STARLINK-2324
1 47869U 21021K   24364.16842068  .21522931  12513-4  55091-3 0  9998
2 47869  53.0219  33.1465 0001143 185.6015 287.1362 16.46060121210541
Epoch: 2024-12-29T04:02Z
TLE epoch observation values (Epoch: 2024-12-29T04:02:31.546Z)
Latitude
47.61629°
Longitude
-0.70888°
Altitude
154.73 km
Speed
7.82 km/s
True Right ascension
10h 32m 07s
True Declination
47° 25' 45"
Sunlit
Object was in full shadow at epoch
Visualization orbit readout
Latitude
Unknown
Longitude
Unknown
Altitude
Unknown
Speed
Unknown
Apparent Right ascension
Unknown
Apparent Declination
Unknown
Sunlit
N/A
Visualization observer readout
Local Sidereal Time
21:27:45
Azimuth
Unknown
Elevation
Unknown
Doppler factor
Unknown
Orbital elements
Apogee altitude
150.77 km
Perigee altitude
149.277 km
Semi-major axis
6,528.16 km
Eccentricity
0.00011
Inclination
53.0219°
RAAN
33.1465°
Arg. of periapsis
185.6015°
True anomaly
287.12368°
Mean anomaly
287.1362°
Eccentric anomaly
287.12994°
Mean motion
4.11488 °/min
Orbital period
87.49 mins
BSTAR
0.00055091
Loading maneuver chart data...
Computing Atmospheric mass density...

Documentation

Showing up to 5 results
|